Location: Austin
(30.3000°N, 97.7500°W)
Time: 00:04:37
(UTC-05:00)

Longmarch 3A Rocket - Pass Details

Date: 06 May 2026
Orbit: 262 x 18587 km, 27.3° (Epoch: 12 May)

Event Time Altitude Azimuth Distance (km) Brightness Sun altitude
Rises 22:51:12 0° 265° (W) 4,806 7.1 -29.7°
Reaches altitude 10° 22:56:00 10° 261° (W) 2,447 5.5 -30.4°
Enters shadow 22:57:46 17° 256° (WSW) 1,561 4.4 -30.7°
